CZ-6A DEB, 54342

Orbit data source: Space-Track

CZ-6A DEB, 54342 is space debris in SSO originally from a launch on Fri, 11 Nov 2022 UTC launched from the Taiyaun Space Center, China (TSC). Debris objects in space refer to the collection of defunct objects orbiting the Earth. Examples of debris include non-operational satellites, rocket bodies, and fragments generated from explosions, collisions, or faulty payload assembly.

Loading next visibility...
Identifier
54342, 2022-151CM
Orbit
SSO
Country
Flag of CNCN / PRC
Related business
Manufacturer
SAST
Mission
Spacecraft
Bus & Motor
Unknown
Mass
Unknown
Launch date (UTC)
2022-11-11 (4 years ago)
Launch vehicle
Unknown
Launch site
Taiyaun Space Center, China (TSC)
Object type
Payload
Rocket body
Debris
Shape & HBR
Unknown shape, 0.2 m
Radar Cross Section
Medium (>0.1 m² and <1 m²)

Expand to show TLE details & history
Last TLE update: 2 days ago

TLE from 2 days ago
0 CZ-6A DEB
1 54342U 22151CM  26171.40890111  .00000193  00000-0  13521-3 0  9998
2 54342  98.8400 167.5088 0051363 345.4875  14.4817 14.08956922184743
Epoch: 2026-06-20T09:48Z
TLE epoch observation values (Epoch: 2026-06-20T09:48:49.055Z)
Latitude
-0.00008°
Longitude
111.68047°
Altitude
829.833 km
Speed
7.457 km/s
True Right ascension
11h 10m 02s
True Declination
0° 00' 00"
Sunlit
Object was in daylight at epoch
Visualization orbit readout
Latitude
Unknown
Longitude
Unknown
Altitude
Unknown
Speed
Unknown
Apparent Right ascension
Unknown
Apparent Declination
Unknown
Sunlit
N/A
Visualization observer readout
Local Sidereal Time
21:35:57
Azimuth
Unknown
Elevation
Unknown
Doppler factor
Unknown
Orbital elements
Apogee altitude
897.301 km
Perigee altitude
822.945 km
Semi-major axis
7,238.26 km
Eccentricity
0.00514
Inclination
98.84°
RAAN
167.5088°
Arg. of periapsis
345.4875°
True anomaly
14.62981°
Mean anomaly
14.4817°
Eccentric anomaly
14.55566°
Mean motion
3.52445 °/min
Orbital period
102.14 mins
BSTAR
0.00013521
Loading maneuver chart data...
Computing Atmospheric mass density...
Loading historical data...
Loading historical data...
Loading historical data...
Loading historical data...
Loading historical data...
Loading historical data...
Loading historical data...

Documentation

Showing up to 5 results
|